Glasgow, MT

2:05 PM MDT on April 30, 2017 (GMT -0600)
Wokal-Glasgow International

Weather History for KGGW - November, 2012

Change the Weather History Date:

Thursday, November 1, 2012

  Actual Average Record
Temperature  
Mean Temperature 35 °F 37 °F  
Max Temperature 39 °F 48 °F 76 °F (1901)
Min Temperature 30 °F 26 °F -10 °F (1984)
Degree Days  
Heating Degree Days 30 28  
Month to date heating degree days 30 28  
Since 1 July heating degree days 908 952  
Cooling Degree Days 0 0  
Month to date cooling degree days 0 0  
Year to date cooling degree days 681 533  
Moisture  
Dew Point 33 °F    
Average Humidity 93    
Maximum Humidity 100    
Minimum Humidity 85    
Precipitation  
Precipitation 0.01 in 0.01 in 0.38 in (1938)
Month to date precipitation 0.01 0.01  
Year to date precipitation 11.84 10.87  
Snow  
Snow 0.00 in 0.10 in 1.80 in (1936)
Month to date snowfall 0.0 0.1  
Since 1 July snowfall 1.0 1.6  
Since 1 September snowfall 1.0 1.6  
Snow Depth 0.00 in    
Sea Level Pressure  
Sea Level Pressure 29.93 in    
Wind  
Wind Speed 16 mph (East)    
Max Wind Speed 25 mph    
Max Gust Speed 32 mph    
Visibility 6 miles    
Events Fog    
T = Trace of Precipitation, MM = Missing Value Source: NWS Daily Summary

Daily Weather History Graph

Daily Weather History Graph

Search for Another Location

Airport or City:

Trip Planner

Search our weather history database for the weather conditions in past years. The results will help you decide how hot, cold, wet, or windy it might be!

Date:

Astronomy

Nov. 01, 2012 Rise Set
Actual Time 7:52 AM MDT 5:46 PM MDT
Civil Twilight 7:19 AM MDT 6:19 PM MDT
Nautical Twilight 6:43 AM MDT 6:56 PM MDT
Astronomical Twilight 6:06 AM MDT 7:32 PM MDT
Moon 7:35 PM MDT (11/1) 10:37 AM MDT (11/1)
Length of Visible Light 10h 59m
Length of Day
9h 53m
Waning Gibbous, 92% of the Moon is Illuminated
Nov 1
Waning Gibbous
Nov 6
Last Quarter
Nov 13
New
Nov 20
First Quarter
Nov 28
Full

Hourly Weather History & Observations

Time (MDT) Temp. Windchill Dew Point Humidity Pressure Visibility Wind Dir Wind Speed Gust Speed Precip Events Conditions
12:07 AM 30.2 °F 18.5 °F 26.6 °F 86% 30.03 in 10.0 mi East 17.3 mph - N/A   Overcast
12:53 AM 30.9 °F 18.7 °F 28.0 °F 89% 30.09 in 10.0 mi East 19.6 mph 27.6 mph N/A   Overcast
1:53 AM 30.0 °F 16.3 °F 28.0 °F 92% 30.06 in 10.0 mi East 24.2 mph 29.9 mph N/A   Overcast
2:53 AM 30.0 °F 16.6 °F 28.9 °F 96% 30.04 in 7.0 mi East 23.0 mph 28.8 mph N/A   Overcast
3:53 AM 30.9 °F 18.1 °F 28.9 °F 92% 30.01 in 6.0 mi East 21.9 mph 28.8 mph N/A   Overcast
4:02 AM 30.2 °F 16.5 °F 28.4 °F 93% 29.93 in 5.0 mi East 24.2 mph 28.8 mph N/A   Overcast
4:53 AM 30.9 °F 18.7 °F 30.0 °F 96% 29.99 in 4.0 mi East 19.6 mph 28.8 mph N/A   Overcast
5:14 AM 30.2 °F 17.1 °F 30.2 °F 100% 29.91 in 2.0 mi East 21.9 mph 32.2 mph N/A   Overcast
5:21 AM 30.2 °F 17.1 °F 30.2 °F 100% 29.91 in 1.5 mi ESE 21.9 mph 29.9 mph N/A   Overcast
5:30 AM 30.2 °F 16.8 °F 30.2 °F 100% 29.91 in 1.0 mi ESE 23.0 mph 29.9 mph N/A   Overcast
5:41 AM 30.2 °F 17.4 °F 30.2 °F 100% 29.91 in 0.8 mi East 20.7 mph 28.8 mph N/A   Mist
5:53 AM 32.0 °F 19.2 °F 30.9 °F 96% 29.98 in 0.5 mi East 23.0 mph 28.8 mph N/A Fog Fog
6:53 AM 32.0 °F 19.8 °F 32.0 °F 100% 29.96 in 0.5 mi East 20.7 mph 28.8 mph N/A Fog Fog
7:13 AM 32.0 °F 19.2 °F 32.0 °F 100% 29.88 in 1.5 mi East 23.0 mph 29.9 mph N/A   Overcast
7:21 AM 32.0 °F 19.5 °F 32.0 °F 100% 29.87 in 3.0 mi East 21.9 mph 31.1 mph N/A   Overcast
7:53 AM 33.1 °F 20.6 °F 30.9 °F 92% 29.96 in 5.0 mi East 23.0 mph 26.5 mph N/A   Overcast
8:35 AM 33.8 °F 22.8 °F 30.2 °F 87% 29.89 in 6.0 mi East 18.4 mph - N/A   Overcast
8:53 AM 33.1 °F 20.9 °F 30.9 °F 92% 29.96 in 7.0 mi East 21.9 mph - N/A   Overcast
9:53 AM 33.1 °F 21.5 °F 30.9 °F 92% 29.95 in 4.0 mi East 19.6 mph - N/A   Overcast
10:20 AM 33.8 °F 22.8 °F 30.2 °F 87% 29.86 in 2.5 mi East 18.4 mph 26.5 mph N/A   Overcast
10:44 AM 33.8 °F 22.5 °F 30.2 °F 87% 29.87 in 2.5 mi East 19.6 mph 25.3 mph N/A   Overcast
10:53 AM 33.1 °F 21.5 °F 30.9 °F 92% 29.94 in 3.0 mi East 19.6 mph - N/A   Overcast
11:53 AM 33.8 °F 23.2 °F 32.0 °F 93% 29.87 in 4.0 mi East 17.3 mph 25.3 mph N/A   Overcast
12:53 PM 34.0 °F 23.8 °F 32.0 °F 92% 29.94 in 4.0 mi East 16.1 mph - N/A   Overcast
1:53 PM 36.0 °F 26.7 °F 33.1 °F 89% 29.93 in 4.0 mi East 15.0 mph - N/A   Overcast
2:53 PM 37.0 °F 28.5 °F 35.1 °F 93% 29.91 in 6.0 mi East 13.8 mph - N/A   Overcast
3:11 PM 37.4 °F 28.5 °F 35.6 °F 93% 29.84 in 7.0 mi East 15.0 mph - N/A   Overcast
3:53 PM 37.9 °F 30.5 °F 35.1 °F 89% 29.91 in 10.0 mi East 11.5 mph - N/A   Overcast
4:53 PM 37.9 °F 30.0 °F 35.1 °F 89% 29.91 in 10.0 mi East 12.7 mph - N/A   Overcast
5:15 PM 39.2 °F 32.5 °F 35.6 °F 87% 29.85 in 10.0 mi East 10.4 mph - N/A   Overcast
5:53 PM 39.0 °F 32.8 °F 35.1 °F 86% 29.93 in 10.0 mi East 9.2 mph - N/A   Overcast
6:39 PM 39.2 °F 32.0 °F 35.6 °F 87% 29.85 in 10.0 mi East 11.5 mph - N/A   Overcast
6:53 PM 39.0 °F 32.3 °F 35.1 °F 86% 29.93 in 10.0 mi East 10.4 mph - N/A   Overcast
7:53 PM 39.0 °F 33.4 °F 36.0 °F 89% 29.93 in 10.0 mi East 8.1 mph - 0.00 in   Overcast
8:53 PM 39.0 °F 33.4 °F 36.0 °F 89% 29.94 in 10.0 mi ESE 8.1 mph - N/A   Overcast
9:53 PM 39.0 °F 32.8 °F 36.0 °F 89% 29.94 in 10.0 mi ESE 9.2 mph - N/A   Overcast
10:42 PM 37.4 °F 30.8 °F 35.6 °F 93% 29.86 in 10.0 mi East 9.2 mph - 0.00 in   Overcast
10:47 PM 37.4 °F 30.3 °F 35.6 °F 93% 29.86 in 10.0 mi East 10.4 mph - 0.00 in   Overcast
10:53 PM 37.9 °F 30.9 °F 36.0 °F 93% 29.94 in 10.0 mi East 10.4 mph - 0.00 in   Overcast
11:44 PM 37.4 °F 31.4 °F 37.4 °F 100% 29.89 in 10.0 mi ESE 8.1 mph - N/A   Overcast
11:53 PM 37.9 °F 32.1 °F 37.0 °F 97% 29.95 in 10.0 mi ESE 8.1 mph - N/A   Overcast